Find OneWeb SL0119

NORAD ID: 47278 Int'l Des: 2020-100 Owner: ONEWEB Country: UK Constellation: oneweb operational
LEOCIRCULARPOLARONEWEB_TYPE

リアルタイム位置

3D地球を読み込み中...

OneWeb SL0119について

説明を読み込み中...

次回通過

Passes for default location (London). Set your location on the main map for personalized predictions.

高度履歴

Loading altitude history...

軌道要素

1 47278U 20100W 26127.19967700 -.00000473 00000-0 -13502-2 0 9997
2 47278 87.8980 358.8213 0001868 78.7035 281.4304 13.12441796259201
Epoch: May 7, 2026 • Age: 9 hours

現在のステータス

高度 1215.7 km
速度 7.25 km/s
衛星直下点 5.23°N, 76°W
打ち上げ日 Dec 18, 2020
運用期間 5.3 years
タイプ internet

技術仕様

分類 Payload
質量 148.00 kg
乾燥質量 140.00 kg
総質量 148.00 kg
長さ 1.30 m
直径 1.00 m
スパン 5.00 m
形状 Trapezoid+2 pan
製造者 ONEWUS
バスタイプ ARROW
フェーズステータス In Orbit
所有者/国 ONEWEB/UK

Most Searched